Regional Weather Roundup
Issued by NWS Goodland, KS

Home | Current Version | Previous Version | Text Only | Print | Product List | Glossary On
Versions: 1 2 3 4 5 6 7 8 9 10 11 12 13 14 15 16 17 18 19 20 21 22 23 24 25 26 27 28 29 30 31 32 33 34 35 36 37 38 39 40 41 42 43 44 45 46 47 48 49 50
000
ASUS43 KGLD 261508
RWRGLD

GOODLAND FORECAST AREA HOURLY WEATHER ROUNDUP
NATIONAL WEATHER SERVICE GOODLAND KS
900 AM MDT SUN APR 26 2015

...OFFICIAL OBSERVATIONS...

CITY           SKY/WX    TMP DP  RH WIND       PRES   REMARKS
GOODLAND KS    CLOUDY    42  42 100 E15       29.92R FOG
HILL CITY KS   CLOUDY    47  44  90 E15G22    29.93R
IMPERIAL NEB   CLOUDY    43  41  93 SE16      29.93S
MCCOOK NEB     CLOUDY    45  42  89 E17G23    29.94R FOG
AKRON CO       CLOUDY    41  41 100 SE12      29.90R FOG
BURLINGTON CO  CLOUDY    43  41  93 E16       29.88S FOG
LIMON CO       CLOUDY    43  42  97 E15       29.86R
$$

...UNOFFICIAL OBSERVATIONS...

CITY           SKY/WX    TMP DP  RH WIND       PRES   REMARKS
GOVE KS          N/A     46  32  58 MISG        N/A
LENORA KS        N/A     45  32  60 MISG        N/A
SHARON SPRINGS   N/A     43  42  97 N12G20      N/A
TRIBUNE KS     CLOUDY    46  46 100 NE15      29.88S
KIT CARSON CO    N/A     43  41  92 MISG        N/A
YUMA CO          N/A     51  51 100 E14         N/A
$$


USA.gov is the U.S. government's official web portal to all federal, state and local government web resources and services.